User: anonymous
Location: Oshawa
(43.9000°N, 78.8670°W)
Time: 02:23:36
(UTC-04:00)
Language:

Cosmos 1707 Rocket - Orbit

View from above orbital plane
View from above orbital plane
View from above satellite
View from above satellite

Ground track
Ground track

The orbit data is extracted from the following two-line orbital elements,

1 16327U 85113B   14294.50812162  .00000739  00000-0  88150-4 0  4914
2 16327 082.5330 278.6766 0017687 307.5999 173.8784 14.82885500558147
Epoch (UTC): 21 October 2014 12:11:41
Eccentricity: 0.0017687
inclination: 82.5330°
perigee height: 608 km
apogee height: 632 km
right ascension of ascending node: 278.6766°
argument of perigee: 307.5999°
revolutions per day: 14.82885500
mean anomaly at epoch: 173.8784°
orbit number at epoch: 55814

The dashed part of the orbit path shows where the satellite is in the earth's shadow,  

DLR